Weather History for Henderson, KY

Change the Weather History Date:

Sunday, May 25, 2014

  Actual Average Record
Temperature  
Mean Temperature 72 °F -  
Max Temperature 80 °F 79 °F 93 °F (2012)
Min Temperature 64 °F 58 °F 42 °F (1934)
Cooling Degree Days 7    
Growing Degree Days 22 (Base 50)    
Moisture  
Dew Point 55 °F    
Average Humidity 57    
Maximum Humidity 73    
Minimum Humidity 42    
Precipitation  
Precipitation 0.00 in - - ()
Sea Level Pressure  
Sea Level Pressure 30.09 in    
Wind  
Wind Speed 6 mph (ESE)    
Max Wind Speed 12 mph    
Max Gust Speed 16 mph    
Visibility 10 miles    
Events      
Averages and records for this station are not official NWS values.
T = Trace of Precipitation, MM = Missing Value Source: NWS Daily Summary

Daily Weather History Graph

Daily Weather History Graph

Search for Another Location

Airport:

Trip Planner

Search our weather history database for the weather conditions in past years. The results will help you decide how hot, cold, wet, or windy it might be!

Date:

Astronomy

May. 25, 2014 Rise Set
Actual Time 5:33 AM CDT 8:02 PM CDT
Civil Twilight 5:03 AM CDT 8:32 PM CDT
Nautical Twilight 4:26 AM CDT 9:09 PM CDT
Astronomical Twilight 3:44 AM CDT 9:51 PM CDT
Moon 3:34 AM CDT (5/25) 5:05 PM CDT (5/25)
Length of Visible Light 15h 28m
Length of Day
14h 28m
Waning Crescent, 10% of the Moon is Illuminated
May 25
Waning Crescent
May 28
New
Jun 5
First Quarter
Jun 12
Full
Jun 19
Last Quarter

Hourly Weather History & Observations

Time (CDT) Temp. Heat Index Dew Point Humidity Pressure Visibility Wind Dir Wind Speed Gust Speed Precip Events Conditions
12:15 AM 66.2 °F - 55.4 °F 68% 30.10 in 10.0 mi Calm Calm - N/A   Clear
12:35 AM 66.2 °F - 55.4 °F 68% 30.09 in 10.0 mi East 4.6 mph - N/A   Clear
1:15 AM 66.2 °F - 53.6 °F 64% 30.08 in 10.0 mi East 5.8 mph - N/A   Mostly Cloudy
1:35 AM 66.2 °F - 53.6 °F 64% 30.07 in 10.0 mi ESE 5.8 mph - N/A   Clear
1:55 AM 66.2 °F - 53.6 °F 64% 30.07 in 10.0 mi ESE 5.8 mph - N/A   Clear
2:15 AM 66.2 °F - 53.6 °F 64% 30.08 in 10.0 mi ESE 3.5 mph - N/A   Clear
2:35 AM 66.2 °F - 53.6 °F 64% 30.08 in 10.0 mi SE 5.8 mph - N/A   Clear
2:55 AM 66.2 °F - 53.6 °F 64% 30.09 in 10.0 mi ESE 4.6 mph - N/A   Scattered Clouds
3:15 AM 66.2 °F - 53.6 °F 64% 30.09 in 10.0 mi East 5.8 mph - N/A   Scattered Clouds
3:35 AM 66.2 °F - 53.6 °F 64% 30.09 in 10.0 mi ESE 5.8 mph - N/A   Mostly Cloudy
3:55 AM 66.2 °F - 53.6 °F 64% 30.09 in 10.0 mi ESE 3.5 mph - N/A   Mostly Cloudy
4:15 AM 64.4 °F - 53.6 °F 68% 30.09 in 10.0 mi East 4.6 mph - N/A   Scattered Clouds
4:35 AM 64.4 °F - 53.6 °F 68% 30.09 in 10.0 mi East 4.6 mph - N/A   Partly Cloudy
4:55 AM 64.4 °F - 53.6 °F 68% 30.09 in 10.0 mi East 5.8 mph - N/A   Partly Cloudy
5:15 AM 64.4 °F - 53.6 °F 68% 30.10 in 10.0 mi East 5.8 mph - N/A   Partly Cloudy
5:35 AM 64.4 °F - 53.6 °F 68% 30.10 in 10.0 mi ENE 6.9 mph - N/A   Clear
5:55 AM 64.4 °F - 53.6 °F 68% 30.11 in 10.0 mi East 6.9 mph - N/A   Scattered Clouds
6:15 AM 64.4 °F - 53.6 °F 68% 30.12 in 10.0 mi East 6.9 mph - N/A   Mostly Cloudy
6:35 AM 64.4 °F - 53.6 °F 68% 30.12 in 10.0 mi East 6.9 mph - N/A   Overcast
6:55 AM 64.4 °F - 53.6 °F 68% 30.12 in 10.0 mi East 4.6 mph - N/A   Mostly Cloudy
7:15 AM 64.4 °F - 53.6 °F 68% 30.12 in 10.0 mi East 5.8 mph - N/A   Mostly Cloudy
7:35 AM 64.4 °F - 53.6 °F 68% 30.13 in 10.0 mi East 6.9 mph - N/A   Overcast
7:55 AM 64.4 °F - 53.6 °F 68% 30.13 in 10.0 mi East 8.1 mph - N/A   Overcast
8:15 AM 64.4 °F - 55.4 °F 73% 30.12 in 10.0 mi East 6.9 mph - N/A   Overcast
8:35 AM 64.4 °F - 53.6 °F 68% 30.12 in 10.0 mi ESE 5.8 mph - N/A   Overcast
8:55 AM 66.2 °F - 53.6 °F 64% 30.13 in 10.0 mi SE 5.8 mph - N/A   Mostly Cloudy
9:15 AM 66.2 °F - 53.6 °F 64% 30.13 in 10.0 mi ESE 4.6 mph - N/A   Mostly Cloudy
10:15 AM 71.6 °F - 55.4 °F 57% 30.12 in 10.0 mi SE 5.8 mph - N/A   Clear
10:35 AM 71.6 °F - 55.4 °F 57% 30.12 in 10.0 mi East 9.2 mph - N/A   Clear
10:55 AM 71.6 °F - 53.6 °F 53% 30.11 in 10.0 mi East 10.4 mph - N/A   Clear
11:15 AM 73.4 °F - 53.6 °F 50% 30.12 in 10.0 mi ESE 9.2 mph - N/A   Clear
11:35 AM 73.4 °F - 53.6 °F 50% 30.12 in 10.0 mi ESE 10.4 mph - N/A   Clear
11:55 AM 75.2 °F - 55.4 °F 50% 30.11 in 10.0 mi ESE 6.9 mph - N/A   Scattered Clouds
12:15 PM 75.2 °F - 53.6 °F 47% 30.11 in 10.0 mi East 8.1 mph - N/A   Scattered Clouds
12:35 PM 75.2 °F - 53.6 °F 47% 30.10 in 10.0 mi SE 8.1 mph - N/A   Partly Cloudy
12:55 PM 75.2 °F - 55.4 °F 50% 30.10 in 10.0 mi East 10.4 mph - N/A   Mostly Cloudy
1:15 PM 78.8 °F - 55.4 °F 44% 30.10 in 10.0 mi East 8.1 mph - N/A   Mostly Cloudy
1:35 PM 77.0 °F - 53.6 °F 44% 30.09 in 10.0 mi ESE 6.9 mph 16.1 mph N/A   Mostly Cloudy
1:55 PM 77.0 °F - 53.6 °F 44% 30.09 in 10.0 mi East 8.1 mph - N/A   Mostly Cloudy
2:15 PM 78.8 °F - 53.6 °F 42% 30.09 in 10.0 mi East 11.5 mph - N/A   Mostly Cloudy
2:35 PM 78.8 °F - 55.4 °F 44% 30.09 in 10.0 mi ESE 9.2 mph - N/A   Scattered Clouds
2:55 PM 78.8 °F - 55.4 °F 44% 30.08 in 10.0 mi ESE 9.2 mph - N/A   Partly Cloudy
3:15 PM 78.8 °F - 53.6 °F 42% 30.07 in 10.0 mi ESE 8.1 mph - N/A   Clear
3:35 PM 80.6 °F 80.5 °F 55.4 °F 42% 30.07 in 10.0 mi SE 8.1 mph - N/A   Clear
3:55 PM 78.8 °F - 55.4 °F 44% 30.07 in 10.0 mi SSE 8.1 mph - N/A   Clear
4:35 PM 78.8 °F - 55.4 °F 44% 30.07 in 10.0 mi ESE 6.9 mph - N/A   Clear
4:55 PM 78.8 °F - 55.4 °F 44% 30.06 in 10.0 mi East 6.9 mph - N/A   Clear
5:15 PM 78.8 °F - 55.4 °F 44% 30.05 in 10.0 mi East 11.5 mph - N/A   Clear
5:35 PM 78.8 °F - 55.4 °F 44% 30.04 in 10.0 mi East 10.4 mph - N/A   Clear
5:55 PM 78.8 °F - 55.4 °F 44% 30.04 in 10.0 mi East 9.2 mph - N/A   Clear
6:15 PM 78.8 °F - 55.4 °F 44% 30.04 in 10.0 mi ESE 8.1 mph - N/A   Clear
6:35 PM 78.8 °F - 55.4 °F 44% 30.04 in 10.0 mi SE 8.1 mph - N/A   Clear
6:55 PM 78.8 °F - 55.4 °F 44% 30.04 in 10.0 mi ESE 6.9 mph - N/A   Clear
7:15 PM 77.0 °F - 55.4 °F 47% 30.05 in 10.0 mi East 5.8 mph - N/A   Clear
7:35 PM 75.2 °F - 57.2 °F 53% 30.05 in 10.0 mi East 6.9 mph - N/A   Clear
7:55 PM 73.4 °F - 59.0 °F 61% 30.05 in 10.0 mi East 6.9 mph - N/A   Clear
8:15 PM 73.4 °F - 57.2 °F 57% 30.05 in 10.0 mi East 5.8 mph - N/A   Clear
8:35 PM 73.4 °F - 57.2 °F 57% 30.05 in 10.0 mi East 5.8 mph - N/A   Clear
8:55 PM 73.4 °F - 57.2 °F 57% 30.06 in 10.0 mi East 5.8 mph - N/A   Clear
9:15 PM 71.6 °F - 57.2 °F 60% 30.06 in 10.0 mi East 5.8 mph - N/A   Clear
9:35 PM 71.6 °F - 57.2 °F 60% 30.06 in 10.0 mi East 4.6 mph - N/A   Clear
9:55 PM 69.8 °F - 57.2 °F 64% 30.07 in 10.0 mi East 4.6 mph - N/A   Clear
10:15 PM 69.8 °F - 55.4 °F 60% 30.07 in 10.0 mi East 4.6 mph - N/A   Clear
10:35 PM 68.0 °F - 57.2 °F 68% 30.07 in 10.0 mi East 4.6 mph - N/A   Clear
10:55 PM 69.8 °F - 57.2 °F 64% 30.07 in 10.0 mi East 4.6 mph - N/A   Clear
11:15 PM 68.0 °F - 55.4 °F 64% 30.07 in 10.0 mi East 3.5 mph - N/A   Clear
11:35 PM 68.0 °F - 55.4 °F 64% 30.07 in 10.0 mi Calm Calm - N/A   Clear
11:55 PM 68.0 °F - 55.4 °F 64% 30.07 in 10.0 mi East 3.5 mph - N/A   Clear